Location: Grantsboro
(35.1404°N, 76.8424°W)
Time: 18:45:12
(UTC+00:00)

CZ-4 R/B - Pass Details

Date: 18 January 2020
Orbit: 534 x 597 km, 97.7° (Epoch: 16 February)

Event Time Altitude Azimuth Distance (km) Brightness Sun altitude
Rises 11:25:04 0° 29° (NNE) 2,843 5.1 -10.2°
Reaches altitude 10° 11:27:43 10° 46° (NE) 1,937 4.5 -9.7°
Maximum altitude 11:30:52 20° 95° (E) 1,375 4.5 -9.1°
Drops below altitude 10° 11:34:00 10° 144° (SE) 1,920 5.0 -8.5°
Sets 11:36:36 0° 161° (SSE) 2,809 5.5 -8.0°
